1505419200.23,61238,16.69,73246.8,3.85,3.29,3.25,0,*71
1505419201.4,61239,16.69,73244.0,3.85,3.29,3.29,0,*7C
1505419202.58,61240,16.69,73248.3,3.85,3.25,3.29,0,*7E
1505419203.76,61241,16.69,73254.5,3.85,3.25,3.25,0,*73
1505419204.94,61242,16.69,73252.8,3.85,3.25,3.25,0,*70
1505419206.14,61243,16.69,73254.3,3.85,3.19,3.25,0,*7E
1505419207.37,61244,16.69,73250.3,3.85,3.15,3.15,0,*76
1505419208.61,61245,16.69,73254.8,3.85,3.15,3.15,0,*77
1505419209.82,61246,16.69,73258.3,3.85,3.19,3.19,0,*74
1505419211.06,61247,16.69,73258.0,3.85,3.15,3.15,0,*75
1505419212.29,61248,16.69,73258.5,3.85,3.11,3.03,0,*79
1505419213.52,61249,16.69,73256.5,3.85,3.03,3.03,0,*7B
1505419214.75,61250,16.69,73252.8,3.85,3.11,3.11,0,*73
1505419215.98,61251,16.69,73248.8,3.85,3.11,3.11,0,*72
1505419217.21,61252,16.69,73254.5,3.85,3.15,3.15,0,*71
1505419218.43,61253,16.69,73252.5,3.85,3.19,3.19,0,*70
1505419219.65,61254,16.69,73258.8,3.85,3.19,3.19,0,*77
1505419220.83,61255,16.69,73254.0,3.85,3.25,3.25,0,*76
1505419222.02,61256,16.69,73256.3,3.85,3.25,3.19,0,*7A
1505419223.26,61257,16.69,73258.0,3.87,3.19,3.19,0,*76
1505419224.5,61258,16.69,73258.8,3.85,3.15,3.15,0,*7B
1505419225.72,61259,16.69,73262.0,3.85,3.19,3.19,0,*7A
1505419226.93,61260,16.69,73262.5,3.85,3.19,3.19,0,*70
1505419228.16,61261,16.69,73254.8,3.85,3.19,3.15,0,*7D
1505419229.39,61262,16.69,73250.8,3.85,3.15,3.15,0,*72
1505419230.64,61263,16.69,73242.5,3.83,3.19,3.15,0,*79
1505419231.88,61264,16.69,73248.0,3.85,3.15,3.15,0,*74
1505419233.1,61265,16.69,73250.5,3.85,3.19,3.19,0,*75
1505419234.27,61266,16.69,73260.8,3.85,3.25,3.25,0,*76
1505419235.47,61267,16.69,73262.3,3.87,3.29,3.29,0,*75
1505419236.71,61268,16.69,73254.3,3.87,3.19,3.19,0,*7A
1505419237.96,61269,16.69,73242.3,3.87,3.19,3.19,0,*7B
1505419239.2,61270,16.69,73244.3,3.87,3.19,3.23,0,*7A
1505419240.42,61271,16.69,73248.8,3.87,3.29,3.23,0,*78
1505419241.64,61272,16.69,73256.3,3.87,3.29,3.23,0,*7B
1505419242.84,61273,16.69,73252.8,3.85,3.25,3.19,0,*7D
1505419244.07,61274,16.69,73252.0,3.85,3.15,3.19,0,*79
1505419245.3,61275,16.69,73250.8,3.85,3.15,3.15,0,*74
1505419246.54,61276,16.69,73244.5,3.85,3.15,3.15,0,*77
1505419247.77,61277,16.69,73246.3,3.85,3.15,3.15,0,*76
1505419249.01,61278,16.69,73244.0,3.87,3.19,3.19,0,*7B
1505419250.25,61279,16.69,73250.0,3.87,3.19,3.19,0,*7A
1505419251.49,61280,16.69,73250.3,3.87,3.19,3.19,0,*7C
1505419252.73,61281,16.69,73252.8,3.87,3.19,3.19,0,*7D
1505419253.99,61282,16.69,73252.5,3.83,3.15,3.15,0,*7A
1505419255.23,61283,16.69,73258.0,3.87,3.19,3.19,0,*7F
1505419256.46,61284,16.69,73254.5,3.89,3.19,3.19,0,*76
1505419257.7,61285,16.69,73252.0,3.87,3.19,3.19,0,*79
1505419258.93,61286,16.69,73248.8,3.85,3.15,3.15,0,*78
1505419260.17,61287,16.69,73248.8,3.85,3.15,3.15,0,*79
1505419261.4,61288,16.69,73252.5,3.85,3.15,3.15,0,*76
1505419262.63,61289,16.69,73256.5,3.85,3.15,3.19,0,*7B
1505419263.85,61290,16.69,73262.5,3.85,3.19,3.19,0,*7F
1505419265.08,61291,16.69,73258.5,3.85,3.15,3.15,0,*7E
1505419266.32,61292,16.69,73252.8,3.85,3.15,3.15,0,*7D
1505419267.55,61293,16.69,73258.3,3.85,3.15,3.15,0,*7C
1505419268.77,61294,16.69,73260.5,3.85,3.19,3.19,0,*7B
1505419269.97,61295,16.69,73262.5,3.83,3.25,3.29,0,*70
1505419271.15,61296,16.69,73258.0,3.85,3.29,3.25,0,*75
1505419272.38,61297,16.69,73252.8,3.85,3.15,3.15,0,*78
1505419273.62,61298,16.69,73256.0,3.85,3.15,3.15,0,*77
1505419274.85,61299,16.69,73264.8,3.85,3.03,3.03,0,*76
1505419276.08,61300,16.69,73260.5,3.85,3.11,3.11,0,*77
1505419277.34,61301,16.69,73260.0,3.87,3.15,3.15,0,*74
1505419278.54,61302,16.69,73260.8,3.85,2.99,3.03,0,*77
1505419279.72,61303,16.69,73256.8,3.85,2.91,2.99,0,*7C
1505419280.91,61304,16.69,73254.3,3.83,2.99,2.99,0,*75
1505419282.14,61305,16.69,73258.0,3.85,3.11,3.11,0,*72
1505419283.37,61306,16.69,73252.0,3.85,3.11,3.11,0,*71
1505419284.57,61307,16.69,73258.0,3.85,3.03,2.99,0,*72
1505419285.8,61308,16.69,73264.8,3.85,3.03,3.11,0,*7C
1505419287.06,61309,16.69,73258.8,3.83,3.11,3.11,0,*78
1505419288.29,61310,16.69,73258.8,3.85,3.03,3.03,0,*76
1505419289.52,61311,16.69,73262.3,3.85,3.11,3.03,0,*74
1505419290.75,61312,16.69,73266.5,3.85,3.11,3.11,0,*74
1505419291.97,61313,16.69,73266.3,3.85,3.19,3.11,0,*7D
1505419293.19,61314,16.69,73260.3,3.85,3.19,3.19,0,*72
1505419294.41,61315,16.69,73262.8,3.85,3.19,3.15,0,*7F
1505419295.63,61316,16.69,73262.8,3.83,3.25,3.19,0,*79
1505419296.87,61317,16.69,73258.5,3.83,3.19,3.19,0,*77
1505419298.09,61318,16.69,73256.5,3.85,3.19,3.19,0,*7E
1505419299.31,61319,16.69,73258.5,3.85,3.19,3.15,0,*73
1505419300.54,61320,16.69,73256.8,3.85,3.15,3.19,0,*79
1505419301.76,61321,16.69,73256.0,3.85,3.19,3.19,0,*74
1505419303.0,61322,16.69,73258.3,3.83,3.19,3.19,0,*71
1505419304.23,61323,16.69,73258.5,3.85,3.15,3.19,0,*7A
1505419305.45,61324,16.69,73258.8,3.85,3.19,3.19,0,*71
1505419306.66,61325,16.69,73258.8,3.85,3.19,3.19,0,*70
1505419307.89,61326,16.69,73260.0,3.85,3.15,3.19,0,*7F
1505419309.13,61327,16.69,73260.0,3.85,3.15,3.15,0,*72
1505419310.36,61328,16.69,73260.3,3.85,3.15,3.15,0,*7D
1505419311.59,61329,16.69,73256.8,3.85,3.15,3.19,0,*70
1505419312.82,61330,16.69,73260.0,3.85,3.15,3.19,0,*78
1505419314.04,61331,16.69,73256.3,3.85,3.19,3.15,0,*79
1505419315.27,61332,16.69,73258.0,3.85,3.15,3.19,0,*7A
1505419316.51,61333,16.69,73256.3,3.85,3.15,3.15,0,*77
1505419317.72,61334,16.69,73262.3,3.85,3.19,3.19,0,*70
1505419318.94,61335,16.69,73256.8,3.85,3.19,3.19,0,*71
1505419320.14,61336,16.69,73262.8,3.85,3.25,3.19,0,*7D
1505419321.32,61337,16.69,73258.5,3.85,3.25,3.29,0,*7F
1505419322.49,61338,16.69,73256.5,3.85,3.25,3.25,0,*7C
1505419323.72,61339,16.69,73260.5,3.85,3.15,3.19,0,*71
1505419324.96,61340,16.69,73268.3,3.85,3.15,3.15,0,*73
1505419326.18,61341,16.69,73266.8,3.85,3.19,3.15,0,*7E
1505419327.36,61342,16.69,73264.0,3.85,3.29,3.25,0,*7D
1505419328.58,61343,16.69,73262.8,3.85,3.19,3.19,0,*70
1505419329.76,61344,16.69,73262.5,3.85,3.25,3.25,0,*77
1505419331.0,61345,16.69,73258.5,3.87,3.19,3.23,0,*7D
1505419332.24,61346,16.69,73260.8,3.87,3.19,3.23,0,*7E
1505419333.47,61347,16.69,73260.5,3.87,3.23,3.29,0,*7C
1505419334.71,61348,16.69,73264.8,3.87,3.23,3.23,0,*79
1505419335.96,61349,16.69,73266.5,3.87,3.23,3.23,0,*78
1505419337.21,61350,16.69,73268.8,3.87,3.23,3.23,0,*70
1505419338.43,61351,16.69,73270.3,3.87,3.29,3.23,0,*7B
1505419339.68,61352,16.69,73270.0,3.87,3.33,3.33,0,*72
1505419340.88,61353,16.69,73264.5,3.87,3.29,3.29,0,*73
1505419342.13,61354,16.69,73264.0,3.87,3.23,3.23,0,*74
1505419343.37,61355,16.69,73270.0,3.87,3.19,3.19,0,*75
1505419344.62,61356,16.69,73270.0,3.87,3.23,3.23,0,*76
1505419345.86,61357,16.69,73264.3,3.87,3.19,3.23,0,*7E
1505419347.08,61358,16.69,73266.0,3.87,3.23,3.29,0,*72
1505419348.29,61359,16.69,73266.3,3.87,3.29,3.29,0,*79
1505419349.49,61360,16.69,73268.8,3.87,3.29,3.29,0,*73
1505419350.73,61361,16.69,73264.3,3.87,3.23,3.19,0,*7B
1505419351.98,61362,16.69,73264.3,3.87,3.23,3.19,0,*78
1505419353.2,61363,16.69,73270.5,3.89,3.19,3.19,0,*7E
1505419354.44,61364,16.69,73272.5,3.87,3.19,3.23,0,*7E
1505419355.67,61365,16.69,73266.0,3.87,3.23,3.29,0,*7C
1505419356.89,61366,16.69,73266.0,3.87,3.29,3.23,0,*7F
1505419358.12,61367,16.69,73262.3,3.89,3.23,3.23,0,*7A
1505419359.37,61368,16.69,73266.3,3.87,3.07,3.19,0,*74
1505419360.6,61369,16.69,73264.8,3.89,3.15,3.07,0,*77
1505419361.86,61370,16.69,73264.8,3.87,3.07,3.15,0,*71
1505419363.12,61371,16.69,73266.5,3.87,3.15,3.15,0,*73
1505419364.38,61372,16.69,73262.5,3.87,3.15,3.15,0,*70
1505419365.62,61373,16.69,73268.0,3.87,3.19,3.23,0,*78
1505419366.86,61374,16.69,73264.8,3.87,3.19,3.19,0,*76
1505419368.1,61375,16.69,73266.5,3.87,3.19,3.19,0,*77
1505419369.34,61376,16.69,73260.5,3.87,3.19,3.19,0,*74
1505419370.59,61377,16.69,73264.0,3.87,3.15,3.19,0,*79
1505419371.85,61378,16.69,73264.3,3.87,3.07,3.15,0,*79
1505419373.11,61379,16.69,73268.3,3.87,3.15,3.07,0,*78
1505419374.37,61380,16.69,73268.3,3.87,3.15,3.15,0,*7D
1505419375.59,61381,16.69,73264.8,3.85,3.03,3.11,0,*7D
1505419376.8,61382,16.69,73264.8,3.85,3.03,2.91,0,*77
1505419378.0,61383,16.69,73266.5,3.87,2.91,2.91,0,*7E
1505419379.23,61384,16.69,73266.3,3.85,2.81,2.81,0,*7B
1505419380.48,61385,16.69,73266.0,3.87,2.81,2.81,0,*78
1505419381.71,61386,16.69,73264.3,3.85,2.77,2.81,0,*70
1505419382.94,61387,16.69,73264.5,3.85,2.81,2.81,0,*78
1505419384.17,61388,16.69,73266.0,3.85,2.89,2.89,0,*77
1505419385.42,61389,16.69,73266.8,3.83,2.89,2.89,0,*70
1505419386.64,61390,16.69,73268.3,3.83,2.91,2.89,0,*71
1505419387.9,61391,16.69,73268.0,3.83,2.59,2.59,0,*79
1505419389.13,61392,16.69,73268.5,3.83,2.65,2.77,0,*79
1505419390.35,61393,16.69,73264.5,3.85,2.81,2.77,0,*74
1505419391.6,61394,16.69,73260.8,3.83,2.59,2.59,0,*7C
1505419392.81,61395,16.69,73262.8,3.79,2.27,2.35,0,*7B
1505419394.0,61396,16.69,73262.5,3.81,2.39,2.27,0,*73
1505419395.23,61397,16.69,73266.8,3.81,2.39,2.39,0,*7D
1505419396.49,61398,16.69,73264.3,3.79,2.51,2.51,0,*75
1505419397.74,61399,16.69,73266.3,3.79,2.73,2.69,0,*7F
1505419398.98,61400,16.69,73270.3,3.79,2.73,2.73,0,*73
1505419400.23,61401,16.69,73266.8,3.79,2.73,2.73,0,*72
1505419401.48,61402,16.69,73264.8,3.79,2.73,2.73,0,*71
1505419402.73,61403,16.69,73268.8,3.79,2.69,2.69,0,*70
1505419403.98,61404,16.69,73266.8,3.79,2.81,2.73,0,*7A
1505419405.24,61405,16.69,73268.0,3.79,2.81,2.81,0,*76
1505419406.42,61406,16.69,73264.3,3.77,2.61,2.61,0,*7B
1505419407.64,61407,16.69,73266.5,3.79,2.61,2.69,0,*7C
1505419408.84,61408,16.69,73264.8,3.77,2.61,2.69,0,*7D
1505419410.07,61409,16.69,73264.3,3.77,2.51,2.47,0,*73
1505419411.29,61410,16.69,73262.3,3.75,2.43,2.35,0,*7F
1505419412.52,61411,16.69,73268.8,3.77,2.51,2.39,0,*73
1505419413.73,61412,16.69,73268.0,3.75,2.65,2.65,0,*7C
1505419414.98,61413,16.69,73264.8,3.75,2.81,2.77,0,*74
1505419416.2,61414,16.69,73262.5,3.77,2.85,2.85,0,*78
1505419417.45,61415,16.69,73258.5,3.75,2.81,2.81,0,*7B
1505419418.65,61416,16.69,73264.5,3.77,2.61,2.69,0,*72
1505419419.88,61417,16.69,73260.0,3.75,2.65,2.59,0,*76
1505419421.11,61418,16.69,73270.5,3.75,2.35,2.43,0,*77
1505419422.34,61419,16.69,73270.5,3.73,2.43,2.43,0,*71
1505419423.57,61420,16.69,73272.0,3.73,2.43,2.43,0,*7B
1505419424.8,61421,16.69,73270.3,3.73,2.55,2.55,0,*7A
1505419426.05,61422,16.69,73268.3,3.71,2.39,2.43,0,*76
1505419427.28,61423,16.69,73266.8,3.73,2.43,2.43,0,*78
1505419428.49,61424,16.69,73268.5,3.73,2.35,2.43,0,*7E
1505419429.69,61425,16.69,73264.3,3.71,2.31,2.31,0,*7C
1505419430.94,61426,16.69,73272.5,3.71,2.39,2.39,0,*7F
1505419432.15,61427,16.69,73272.3,3.73,2.35,2.39,0,*70
1505419433.37,61428,16.69,73268.5,3.71,2.21,2.27,0,*77
1505419434.62,61429,16.69,73258.5,3.71,2.17,2.21,0,*75
1505419435.85,61430,16.69,73256.5,3.65,2.25,2.25,0,*7D
1505419437.11,61431,16.69,73266.5,3.67,2.25,2.25,0,*7E
1505419438.34,61432,16.69,73258.5,3.65,2.13,2.09,0,*74
1505419439.57,61433,16.69,73252.8,3.65,1.97,2.01,0,*72
1505419440.83,61434,16.69,73256.8,3.67,2.13,2.13,0,*7B
1505419442.05,61435,16.69,73262.3,3.63,2.21,2.21,0,*7E
1505419443.28,61436,16.69,73264.8,3.63,2.13,2.13,0,*7D
1505419444.51,61437,16.69,73268.5,3.63,2.05,2.05,0,*7C
1505419445.76,61438,16.69,73268.3,3.61,2.09,2.09,0,*71
1505419447.0,61439,16.69,73272.8,3.61,2.25,2.21,0,*74
1505419448.18,61440,16.69,73270.5,3.63,2.35,2.35,0,*7C
1505419449.4,61441,16.69,73272.5,3.61,2.47,2.35,0,*7A
1505419450.65,61442,16.69,73268.8,3.61,2.59,2.55,0,*70
1505419451.86,61443,16.69,73268.5,3.61,2.65,2.65,0,*7D
1505419453.08,61444,16.69,73264.3,3.63,2.77,2.69,0,*77
1505419454.33,61445,16.69,73270.8,3.61,2.77,2.69,0,*74
1505419455.51,61446,16.69,73268.8,3.63,2.65,2.65,0,*7A
1505419456.74,61447,16.69,73272.5,3.63,2.47,2.47,0,*7B
1505419457.91,61448,16.69,73274.8,3.63,2.31,2.31,0,*74
1505419459.17,61449,16.69,73276.5,3.61,2.13,2.25,0,*72
1505419460.42,61450,16.69,73274.8,3.61,2.13,2.13,0,*7F
1505419461.65,61451,16.69,73270.0,3.59,2.09,2.09,0,*75
1505419462.87,61452,16.69,73272.0,3.59,2.09,2.09,0,*76
1505419464.13,61453,16.69,73268.0,3.57,2.13,2.13,0,*79
1505419465.39,61454,16.69,73270.3,3.57,2.13,2.13,0,*7E
1505419466.65,61455,16.69,73268.3,3.57,2.05,2.13,0,*78
1505419467.91,61456,16.69,73270.3,3.57,2.01,2.05,0,*78
1505419469.17,61457,16.69,73268.8,3.57,1.89,1.85,0,*71
1505419470.38,61458,16.69,73266.8,3.57,1.79,1.79,0,*72
1505419471.56,61459,16.69,73270.8,3.55,1.75,1.75,0,*71
1505419472.74,61460,16.69,73268.8,3.55,1.75,1.75,0,*7B
1505419473.99,61461,16.69,73270.8,3.53,1.59,1.59,0,*7C
1505419475.24,61462,16.69,73266.0,3.53,1.59,1.59,0,*7F
1505419476.47,61463,16.69,73268.8,3.51,1.29,1.29,0,*7C
1505419477.73,61464,16.69,73268.5,3.49,1.25,1.25,0,*72
1505419478.98,61465,16.69,73270.5,3.49,1.47,1.43,0,*77
1505419480.24,61466,16.69,73274.5,3.49,1.55,1.47,0,*73
1505419481.48,61467,16.69,73270.3,3.49,1.43,1.43,0,*71
1505419482.75,61468,16.69,73266.3,3.45,1.21,1.29,0,*7A
1505419484.01,61469,16.69,73268.0,3.41,1.13,1.13,0,*77
1505419485.28,61470,16.69,73268.8,3.41,1.09,1.09,0,*7F
1505419486.48,61471,16.69,73268.0,3.39,1.01,0.91,0,*49
1505419487.68,61472,16.69,73268.5,3.37,1.05,0.97,0,*46
1505419488.94,61473,16.69,73268.0,3.37,1.21,1.13,0,*7C
1505419490.2,61474,16.63,73264.0,3.37,1.43,1.37,0,*79
1505419491.46,61475,16.69,73270.5,3.37,1.33,1.25,0,*7C
1505419492.72,61476,16.69,73274.5,3.37,1.13,1.21,0,*79
1505419493.96,61477,16.69,73274.5,3.35,1.33,1.37,0,*7F
1505419495.19,61478,16.69,73272.0,3.35,1.43,1.37,0,*77
1505419496.44,61479,16.63,73274.5,3.33,1.51,1.43,0,*70
1505419497.7,61480,16.69,73276.0,3.33,1.55,1.55,0,*75
1505419498.95,61481,16.69,73272.5,3.31,1.47,1.47,0,*76
1505419500.15,61482,16.69,73270.3,3.33,1.41,1.41,0,*77
1505419501.4,61483,16.69,73270.0,3.31,1.17,1.21,0,*71
1505419502.66,61484,16.69,73268.3,3.31,1.17,1.17,0,*73
1505419503.89,61485,16.69,73272.8,3.29,1.29,1.25,0,*77
1505419505.15,61486,16.69,73272.3,3.27,1.37,1.37,0,*76
1505419506.39,61487,16.69,73268.0,3.29,1.29,1.29,0,*79
1505419507.62,61488,16.69,73272.0,3.29,1.25,1.25,0,*76
1505419508.87,61489,16.69,73268.5,3.27,1.25,1.13,0,*7C
1505419510.11,61490,16.63,73270.0,3.27,1.43,1.43,0,*71
1505419511.35,61491,16.69,73270.0,3.27,1.43,1.43,0,*70
1505419512.56,61492,16.69,73274.3,3.25,1.43,1.43,0,*71
1505419513.81,61493,16.63,73272.5,3.27,1.43,1.43,0,*72
1505419515.04,61494,16.69,73266.8,3.25,1.09,1.09,0,*77
1505419516.27,61495,16.69,73266.0,3.25,1.37,1.33,0,*72
1505419517.44,61496,16.69,73262.5,3.21,1.41,1.41,0,*71
1505419518.65,61497,16.69,73258.5,3.25,1.47,1.47,0,*74
1505419519.85,61498,16.63,73252.8,3.21,1.43,1.41,0,*7D
1505419521.04,61499,16.69,73258.3,3.19,1.41,1.41,0,*75
1505419522.28,61500,16.69,73260.0,3.19,1.51,1.43,0,*77
1505419523.53,61501,16.69,73264.8,3.19,1.55,1.55,0,*75
1505419524.7,61502,16.69,73256.0,3.17,1.41,1.41,0,*78
1505419525.92,61503,16.69,73250.0,3.17,1.51,1.51,0,*79
1505419527.12,61504,16.69,73254.3,3.17,1.41,1.37,0,*7F
1505419528.37,61505,16.69,73258.0,3.19,1.43,1.43,0,*71
1505419529.6,61506,16.69,73258.5,3.17,1.37,1.37,0,*7C
1505419530.77,61507,16.69,73256.0,3.17,1.41,1.41,0,*7D
1505419532.0,61508,16.69,73262.8,3.17,1.63,1.51,0,*73
1505419533.23,61509,16.69,73252.3,3.17,1.29,1.37,0,*7C
1505419534.46,61510,16.69,73252.5,3.17,1.29,1.29,0,*7B
1505419535.72,61511,16.63,73258.3,3.15,1.37,1.25,0,*7B
1505419536.98,61512,16.69,73260.0,3.15,1.33,1.21,0,*78
1505419538.23,61513,16.69,73256.3,3.15,1.21,1.13,0,*7B
1505419539.47,61514,16.63,73252.5,3.13,1.37,1.33,0,*7F
1505419540.7,61515,16.69,73258.8,3.13,1.55,1.55,0,*7A
1505419541.92,61516,16.69,73260.3,3.13,1.43,1.43,0,*79
1505419543.15,61517,16.63,73258.3,3.13,1.55,1.37,0,*7C
1505419544.37,61518,16.63,73254.3,3.13,1.43,1.43,0,*77
1505419545.58,61519,16.69,73262.8,3.11,1.43,1.41,0,*76
1505419546.8,61520,16.69,73260.3,3.11,1.41,1.29,0,*70
1505419548.06,61521,16.63,73250.0,3.11,1.33,1.29,0,*74
1505419549.27,61522,16.63,73256.8,3.09,1.21,1.05,0,*73
1505419550.46,61523,16.63,73252.8,3.11,0.97,0.97,0,*7D
1505419551.68,61524,16.69,73250.8,3.09,1.17,1.17,0,*73
1505419552.88,61525,16.69,73250.5,3.05,1.51,1.41,0,*7F
1505419554.13,61526,16.63,73254.8,3.07,1.51,1.51,0,*7F
1505419555.38,61527,16.69,73252.0,3.07,1.63,1.63,0,*7E
1505419556.61,61528,16.69,73252.5,3.07,1.75,1.67,0,*72
1505419557.86,61529,16.69,73256.3,3.07,1.55,1.51,0,*74
1505419559.12,61530,16.63,73252.8,3.07,1.55,1.51,0,*7C
1505419560.37,61531,16.69,73258.5,3.07,1.63,1.55,0,*7C
1505419561.62,61532,16.69,73260.0,3.07,1.47,1.51,0,*7D
1505419562.85,61533,16.69,73260.0,3.05,1.63,1.63,0,*79
1505419564.03,61534,16.69,73256.0,3.05,1.75,1.75,0,*7E
1505419565.25,61535,16.69,73256.3,3.05,1.67,1.67,0,*7F
1505419566.5,61536,16.69,73248.8,3.07,1.63,1.63,0,*7E
1505419567.73,61537,16.63,73242.8,3.07,1.75,1.67,0,*7C
1505419568.96,61538,16.69,73246.3,3.05,1.63,1.55,0,*77
1505419570.19,61539,16.69,73248.3,3.05,1.63,1.63,0,*73
1505419571.41,61540,16.63,73246.8,3.05,1.67,1.67,0,*7D
1505419572.64,61541,16.63,73250.0,3.05,1.67,1.67,0,*7C
1505419573.86,61542,16.63,73250.3,3.05,1.67,1.67,0,*7F
1505419575.09,61543,16.63,73254.0,3.05,1.67,1.67,0,*7E
1505419576.34,61544,16.69,73252.5,3.07,1.67,1.63,0,*7F
1505419577.56,61545,16.69,73250.5,3.05,1.67,1.55,0,*79
1505419578.79,61546,16.69,73248.8,3.05,1.63,1.63,0,*7B
1505419579.99,61547,16.69,73256.5,3.05,1.75,1.63,0,*7D
1505419581.22,61548,16.69,73258.5,3.05,1.55,1.47,0,*76
1505419582.43,61549,16.69,73258.0,3.05,1.41,1.37,0,*75
1505419583.67,61550,16.69,73256.0,3.01,1.17,1.21,0,*7D
1505419584.87,61551,16.63,73252.3,2.97,1.05,1.05,0,*77
1505419586.1,61552,16.69,73258.0,2.97,1.05,1.09,0,*78
1505419587.37,61553,16.69,73262.5,2.97,1.29,1.21,0,*7D
1505419588.63,61554,16.69,73262.0,2.97,1.33,1.29,0,*79
1505419589.89,61555,16.69,73260.0,2.97,1.17,1.21,0,*76
1505419591.15,61556,16.63,73256.3,2.97,1.17,1.17,0,*70
1505419592.38,61557,16.69,73262.3,2.95,1.29,1.25,0,*7F
1505419593.6,61558,16.69,73260.5,2.95,1.51,1.51,0,*7C
1505419594.83,61559,16.63,73256.0,2.95,1.63,1.63,0,*7D
1505419596.05,61560,16.63,73260.3,2.95,1.67,1.67,0,*77
1505419597.27,61561,16.69,73260.3,2.95,1.63,1.63,0,*76
1505419598.5,61562,16.63,73254.8,2.95,1.55,1.55,0,*75
1505419599.74,61563,16.69,73254.3,2.93,1.63,1.55,0,*77
1505419600.97,61564,16.63,73252.5,2.95,1.55,1.55,0,*73
1505419602.19,61565,16.69,73252.3,2.95,1.63,1.63,0,*72
1505419603.37,61566,16.69,73258.5,2.95,1.75,1.75,0,*71
1505419604.58,61567,16.69,73258.3,2.95,1.85,1.79,0,*73
1505419605.79,61568,16.63,73254.5,2.95,1.67,1.67,0,*7F
1505419607.0,61569,16.69,73258.3,2.93,1.75,1.75,0,*78
1505419608.22,61570,16.69,73256.8,2.95,1.67,1.67,0,*76
1505419609.44,61571,16.63,73252.8,2.95,1.67,1.63,0,*73
1505419610.61,61572,16.69,73254.3,2.95,1.75,1.75,0,*74
1505419611.86,61573,16.63,73252.3,2.93,1.67,1.67,0,*73
1505419613.08,61574,16.69,73252.5,2.95,1.67,1.63,0,*76
1505419614.32,61575,16.63,73252.0,2.93,1.67,1.63,0,*71
1505419615.55,61576,16.63,73248.3,2.95,1.55,1.55,0,*70
1505419616.77,61577,16.69,73258.0,2.95,1.55,1.63,0,*74
1505419617.97,61578,16.63,73258.0,2.93,1.75,1.75,0,*78
1505419619.23,61579,16.63,73254.5,2.93,1.85,1.85,0,*79
1505419620.47,61580,16.63,73254.5,2.93,1.67,1.63,0,*7B
1505419621.72,61581,16.63,73252.5,2.93,1.55,1.63,0,*7B
1505419622.97,61582,16.69,73260.8,2.93,1.63,1.63,0,*7D
1505419624.22,61583,16.63,73260.3,2.93,1.63,1.55,0,*79
1505419625.47,61584,16.69,73260.8,2.93,1.55,1.51,0,*7F
1505419626.69,61585,16.63,73260.3,2.91,1.59,1.51,0,*70
1505419627.94,61586,16.63,73258.3,2.93,1.63,1.63,0,*79
1505419629.19,61587,16.63,73256.0,2.93,1.55,1.55,0,*78
1505419630.41,61588,16.69,73258.0,2.91,1.47,1.47,0,*75
1505419631.62,61589,16.63,73256.3,2.91,1.33,1.41,0,*71
1505419632.84,61590,16.63,73256.3,2.91,1.47,1.47,0,*7C
1505419634.08,61591,16.63,73256.8,2.89,1.43,1.43,0,*74
1505419635.33,61592,16.63,73256.8,2.89,1.43,1.43,0,*77
1505419636.59,61593,16.69,73256.3,2.89,1.55,1.59,0,*7A
1505419637.83,61594,16.63,73252.8,2.89,1.59,1.59,0,*71
1505419639.05,61595,16.63,73256.8,2.87,1.59,1.59,0,*7E
1505419640.27,61596,16.69,73252.5,2.87,1.59,1.59,0,*7D
1505419641.5,61597,16.63,73252.8,2.87,1.47,1.55,0,*7F
1505419642.72,61598,16.69,73256.5,2.87,1.55,1.47,0,*70
1505419643.95,61599,16.69,73256.0,2.87,1.55,1.47,0,*71
1505419645.17,61600,16.63,73252.8,2.87,1.47,1.47,0,*71
1505419646.4,61601,16.69,73258.5,2.87,1.55,1.55,0,*70
1505419647.62,61602,16.63,73254.0,2.87,1.59,1.59,0,*73
1505419648.85,61603,16.63,73254.5,2.87,1.55,1.55,0,*72
1505419650.07,61604,16.63,73254.3,2.87,1.59,1.59,0,*75
1505419651.29,61605,16.63,73250.0,2.87,1.59,1.59,0,*74
1505419652.54,61606,16.63,73250.8,2.89,1.67,1.59,0,*74
1505419653.76,61607,16.69,73252.5,2.87,1.59,1.59,0,*76
1505419654.98,61608,16.63,73250.3,2.87,1.67,1.67,0,*79
1505419656.23,61609,16.63,73248.0,2.89,1.67,1.67,0,*76
1505419657.48,61610,16.69,73248.8,2.89,1.67,1.59,0,*73
1505419658.71,61611,16.63,73252.8,2.87,1.55,1.55,0,*71
1505419659.96,61612,16.69,73260.0,2.85,1.55,1.43,0,*77
1505419661.19,61613,16.63,73256.0,2.87,1.71,1.71,0,*73
1505419662.44,61614,16.63,73258.0,2.85,1.67,1.67,0,*76
1505419663.64,61615,16.63,73256.5,2.85,1.75,1.75,0,*77
1505419664.87,61616,16.69,73258.0,2.87,1.47,1.55,0,*75
1505419666.11,61617,16.69,73260.8,2.87,1.21,1.21,0,*77
1505419667.37,61618,16.63,73262.8,2.85,1.17,1.25,0,*7B
1505419668.63,61619,16.63,73262.0,2.85,1.29,1.17,0,*76
1505419669.83,61620,16.69,73266.0,2.85,1.41,1.41,0,*71
1505419671.05,61621,16.63,73270.3,2.83,1.51,1.51,0,*76
1505419672.28,61622,16.63,73268.3,2.83,1.63,1.63,0,*75
1505419673.51,61623,16.69,73270.5,2.81,1.75,1.71,0,*72
1505419674.69,61624,16.63,73270.3,2.83,1.75,1.75,0,*73
1505419675.9,61625,16.69,73272.8,2.81,1.75,1.75,0,*70
1505419677.08,61626,16.63,73268.3,2.83,1.75,1.75,0,*71
1505419678.3,61627,16.69,73268.8,2.83,1.67,1.67,0,*70
1505419679.53,61628,16.63,73264.0,2.83,1.43,1.51,0,*7C
1505419680.79,61629,16.63,73266.5,2.81,1.25,1.21,0,*78
1505419682.03,61630,16.63,73264.5,2.83,1.13,1.13,0,*76
1505419683.23,61631,16.69,73262.8,2.81,1.01,0.97,0,*4B
1505419684.49,61632,16.63,73262.0,2.81,1.09,1.13,0,*7D
1505419685.73,61633,16.63,73258.8,2.79,1.13,1.09,0,*7B
1505419686.92,61634,16.63,73256.0,2.79,1.01,1.01,0,*77
1505419688.12,61635,16.63,73260.8,2.79,1.09,1.01,0,*7E
1505419689.36,61636,16.69,73264.0,2.75,1.17,1.09,0,*76
1505419690.6,61637,16.63,73262.3,2.79,1.25,1.25,0,*74
1505419691.83,61638,16.69,73262.5,2.75,1.25,1.25,0,*77
1505419693.07,61639,16.63,73262.0,2.75,1.33,1.25,0,*71
1505419694.31,61640,16.63,73262.8,2.75,1.33,1.37,0,*7C
1505419695.55,61641,16.63,73266.3,2.75,1.37,1.37,0,*79
1505419696.79,61642,16.63,73266.0,2.75,1.55,1.55,0,*7A
1505419697.97,61643,16.63,73260.5,2.75,1.79,1.79,0,*7B
1505419699.18,61644,16.69,73264.3,2.75,1.79,1.71,0,*74
1505419700.4,61645,16.63,73260.5,2.75,1.93,1.93,0,*7D
1505419701.63,61646,16.63,73262.8,2.79,1.93,1.97,0,*76
1505419702.86,61647,16.63,73262.3,2.75,1.89,1.93,0,*74
1505419704.06,61648,16.69,73266.0,2.75,1.79,1.71,0,*78
1505419705.27,61649,16.63,73264.0,2.81,1.75,1.75,0,*7A
1505419706.45,61650,16.63,73260.5,2.79,1.75,1.79,0,*79
1505419707.63,61651,16.63,73264.5,2.79,1.83,1.83,0,*74
1505419708.86,61652,16.63,73256.8,2.79,1.93,1.93,0,*77
1505419710.09,61653,16.63,73262.0,2.79,1.97,1.93,0,*72
1505419711.32,61654,16.63,73262.5,2.75,2.01,1.93,0,*75
1505419712.55,61655,16.63,73260.3,2.79,2.05,2.05,0,*70
1505419713.78,61656,16.63,73262.0,2.79,2.05,2.05,0,*73
1505419715.01,61657,16.63,73262.3,2.79,2.05,2.05,0,*72
1505419716.24,61658,16.63,73264.3,2.79,2.05,1.97,0,*75
1505419717.47,61659,16.63,73264.3,2.79,1.97,2.05,0,*74
1505419718.7,61660,16.63,73260.0,2.79,1.97,1.93,0,*72
1505419719.96,61661,16.63,73262.8,2.81,2.05,1.97,0,*78
1505419721.21,61662,16.63,73264.5,2.81,2.05,2.05,0,*73
1505419722.47,61663,16.63,73266.3,2.81,2.05,2.05,0,*72
1505419723.73,61664,16.63,73262.8,2.81,2.05,2.05,0,*75
1505419724.99,61665,16.63,73260.5,2.81,1.97,2.05,0,*7C
1505419726.25,61666,16.63,73262.3,2.81,1.97,1.97,0,*77
1505419727.51,61667,16.69,73264.8,2.81,1.97,2.05,0,*7E
1505419728.77,61668,16.69,73264.5,2.81,2.05,2.05,0,*79
1505419730.03,61669,16.63,73266.3,2.81,2.09,2.17,0,*77
1505419731.28,61670,16.63,73264.3,2.81,2.21,2.25,0,*74
1505419732.54,61671,16.63,73264.5,2.81,2.25,2.25,0,*71
1505419733.72,61672,16.63,73264.3,2.83,2.27,2.27,0,*70
1505419734.97,61673,16.63,73264.8,2.81,2.21,2.21,0,*73
1505419736.21,61674,16.63,73262.3,2.83,2.17,2.13,0,*72